Location: Hamayl? Da??
(36.7028°N, 30.1716°E)
Time: 16:05:59
(UTC+00:00)

Vanguard 2 - Visible Passes

Search period start: 17 January 2026 00:00
Search period end: 27 January 2026 00:00
Orbit: 552 x 2898 km, 32.9° (Epoch: 17 January)

Date Brightness Start Highest point End Pass type
(mag) Time Alt. Az. Time Alt. Az. Time Alt. Az.
17 Jan 10.5 15:09:51 10° WSW 15:25:16 78° S 15:42:54 10° E visible
17 Jan 10.4 17:20:35 10° W 17:37:48 70° SSW 17:46:34 36° SE visible
17 Jan 10.7 19:33:08 10° W 19:47:32 41° SW 19:47:32 41° SW visible
18 Jan 10.5 15:21:55 10° W 15:37:23 78° S 15:54:59 10° E visible
18 Jan 10.4 17:32:43 10° W 17:49:45 64° SSW 17:58:16 35° SE visible
18 Jan 10.9 19:45:39 10° W 19:59:15 34° SW 19:59:15 34° SW visible
19 Jan 10.5 15:33:59 10° W 15:49:30 77° S 16:07:03 10° ESE visible
19 Jan 10.5 17:44:52 10° W 18:01:39 58° SSW 18:10:05 34° SE visible
19 Jan 11.1 19:58:25 10° W 20:11:04 28° SW 20:11:04 28° SW visible
20 Jan 10.5 15:46:04 10° W 16:01:36 75° S 16:19:04 10° ESE visible
20 Jan 10.7 17:57:05 10° W 18:13:27 52° SSW 18:22:00 31° SSE visible
20 Jan 11.3 20:11:37 10° W 20:23:01 22° SW 20:23:01 22° SW visible
21 Jan 10.5 15:58:09 10° W 16:13:39 71° SSW 16:31:00 10° ESE visible
21 Jan 10.9 18:09:22 10° W 18:25:10 45° SSW 18:34:06 27° SSE visible
21 Jan 11.5 20:25:33 10° W 20:34:35 17° SW 20:35:07 17° SW visible
22 Jan 10.6 16:10:16 10° W 16:25:39 66° SSW 16:42:50 10° ESE visible
22 Jan 11.1 18:21:47 10° W 18:36:51 38° SW 18:46:20 22° SSE visible
22 Jan 11.7 20:41:26 10° WSW 20:46:01 12° SW 20:47:22 11° SW visible
23 Jan 10.7 16:22:23 10° W 16:37:36 60° SSW 16:54:32 10° SE visible
23 Jan 11.3 18:34:25 10° W 18:48:28 32° SW 18:58:46 17° S visible
24 Jan 10.8 16:34:33 10° W 16:49:30 54° SSW 17:06:04 10° SE visible
24 Jan 11.5 18:47:23 10° W 19:00:02 26° SW 19:11:23 12° S visible
25 Jan 11.0 16:46:47 10° W 17:01:20 47° SSW 17:17:26 10° SE visible
25 Jan 11.7 19:00:53 10° W 19:11:36 20° SW 19:22:01 10° S visible
26 Jan 11.2 16:59:09 10° W 17:13:08 40° SSW 17:28:33 10° SSE visible
26 Jan 11.8 19:15:29 10° WSW 19:23:11 14° SW 19:30:46 10° SSW visible
